Skip Page Navigation
NASA JPL Caltech
NASA Logo - Jet Propulsion Laboratory + View the NASA Portal
+ Center for Near-Earth Object Studies
JPL Home Earth Solar System Stars & Galaxies Technology
JPL Solar System Dynamics
BODIES ORBITS EPHEMERIDES TOOLS PHYSICAL DATA DISCOVERY FAQ SITE MAP
IMPORTANT: The SSD Announcement email list is now available. Major changes are coming in the near future, including possible hostname and/or URL changes. To be notified of such changes, subscribe to this email list.

Please visit this page for more details.


JPL Small-Body Database Browser
Search: [ help ]  
15518 (1999 VY153)
Classification: Main-belt Asteroid          SPK-ID: 2015518
Ephemeris | Orbit Diagram | Orbital Elements | Mission Design | Physical Parameters | Discovery Circumstances | Close-Approach Data ]

[ show orbit diagram ]
Orbital Elements at Epoch 2459000.5 (2020-May-31.0) TDB
Reference: JPL 29 (heliocentric ecliptic J2000)
 Element Value Uncertainty (1-sigma)   Units 
e .1597663754891346 4.5601e-08  
a 2.797733886457871 1.3344e-08 au
q 2.350750083835367 1.2581e-07 au
i 8.728018483460358 5.0839e-06 deg
node 79.47410680038969 3.0417e-05 deg
peri 99.72534766635853 3.3987e-05 deg
M 115.1458565795172 1.4125e-05 deg
tp 2458453.793993181781
(2018-Dec-01.29399318)
6.7005e-05 TDB
period 1709.259614727372
4.68
1.2229e-05
3.348e-08
d
yr
n .2106175076613042 1.5068e-09 deg/d
Q 3.244717689080375 1.5476e-08 au
  Orbit Determination Parameters
   # obs. used (total)      1707  
   data-arc span      15412 days (42.20 yr)  
   first obs. used      1977-05-19  
   last obs. used      2019-07-30  
   planetary ephem.      DE431  
   SB-pert. ephem.      SB431-N16  
   condition code      0  
   norm. resid. RMS      .50233  
   source      ORB  
   producer      Otto Matic  
   solution date      2020-Feb-22 21:20:28  

Additional Information
 Earth MOID = 1.37306 au 
 Jupiter MOID = 1.78544 au 
 T_jup = 3.291 
[ show covariance matrix ]

Ephemeris | Orbit Diagram | Orbital Elements | Mission Design | Physical Parameters | Discovery Circumstances | Close-Approach Data ]

Physical Parameter Table
Parameter Symbol Value Units Sigma Reference Notes
absolute magnitude H 13.3   n/a MPO395153  
diameter diameter 10.577 km 0.545 urn:nasa:pds:neowise_diameters_albedos::2.0[mainbelt] (http://adsabs.harvard.edu/abs/2011ApJ...741...68M)  
rotation period rot_per 16.245 h n/a LCDB (Rev. 2019-August); Warner et al., 2009 Result based on less than full coverage, so that the period may be wrong by 30 percent or so.
Published Reference List:
[Waszczak, A.; Chang, C.-K.; Ofeck, E.O.; Laher, F.; et al. (2015) Astron. J. 150, A75.]
geometric albedo albedo 0.120   0.026 urn:nasa:pds:neowise_diameters_albedos::2.0[mainbelt] (http://adsabs.harvard.edu/abs/2011ApJ...741...68M)  

15518 (1999 VY153)          Discovered 1999-Nov-10 by CSS at Catalina
Reference: 20000621/Numbers.arcLast Updated: 2004-04-19

[ show close-approach data ]
Alternate Designations
 1999 VY153 = 1977 KX = 1993 UK7 = 1998 WB16 
Ephemeris | Orbit Diagram | Orbital Elements | Mission Design | Physical Parameters | Discovery Circumstances | Close-Approach Data ]
ABOUT SSD CREDITS/AWARDS PRIVACY/COPYRIGHT GLOSSARY LINKS
FirstGov 2020-Mar-30 07:05 UT
(server date/time)  
NASA Home Page
Site Manager:   Ryan S. Park
Webmaster  Alan B. Chamberlin